Weather Roundup
Issued by NWS

Home | Current Version | Previous Version | Graphics & Text | Print | Product List | Glossary Off
Versions: 1 2 3 4 5 6 7 8 9 10 11 12 13 14 15 16 17 18 19 20 21 22 23 24 25 26 27 28 29 30 31 32 33 34 35 36 37 38 39 40 41 42 43 44 45 46 47 48 49 50

000
NZUS93 KARX 050410
HRRWXR

CURRENT HOURLY OBSERVATIONS ACROSS
MUCH OF THE UPPER MISSISSIPPI VALLEY
NATIONAL WEATHER SERVICE LA CROSSE WI
1100 PM CDT SAT JUL 04 2015


...SOUTHEAST MINNESOTA...


CITY           SKY/WX    TMP DP  RH WIND       PRES   REMARKS
ROCHESTER      CLEAR     65  60  84 S6        29.98R
ROCHESTER/MAYO FAIR      71  60  68 S7        29.97R
WINONA         CLEAR     72  63  73 CALM      29.95S
AUSTIN         CLEAR     68  61  77 S6        29.97R
ALBERT LEA     CLEAR     72  59  64 S7        29.96R
DODGE CENTER   PTCLDY    66  61  82 S8        29.97R
PRESTON        CLEAR     66  59  79 S5        29.99S
OWATONNA       CLEAR     68  61  77 S8        29.96R
FARIBAULT      CLEAR     68  61  77 S3        29.95R
$$

...ELSEWHERE IN MINNESOTA...


CITY           SKY/WX    TMP DP  RH WIND       PRES   REMARKS
MINNEAPOLIS    CLEAR     76  62  62 S7        29.92R
INTNL FALLS    CLOUDY    69  60  73 VRB3      29.83F
DULUTH         MOCLDY    61  55  81 SE6       29.95R
RED WING       CLEAR     73  61  64 SW5       29.93R
REDWOOD FALLS  CLEAR     69  62  78 S7        29.91R
MANKATO        CLEAR     70  61  73 S6        29.94R
WORTHINGTON    CLEAR     66  57  72 S8        29.95R
FAIRMONT       CLEAR     64  55  72 S7        29.94R
$$

...SOUTHWEST WISCONSIN...


CITY           SKY/WX    TMP DP  RH WIND       PRES   REMARKS
LA CROSSE      CLEAR     71  65  81 S5        29.95R HAZE
PRAIRIE DU CHI CLEAR     66  61  85 CALM      29.99R
BOSCOBEL       CLEAR     64  62  93 CALM      29.99R FOG
LONE ROCK      CLEAR     64  60  87 CALM      30.00R
PLATTEVILLE    CLEAR     67  63  87 SE7       30.01R
FORT MC COY    PTCLDY    65  62  91 CALM      29.97S
CAMP DOUGLAS   CLEAR     65  65 100 S6        29.97R
VIROQUA        FAIR      69  63  81 S6        30.00R
WIS DELLS      CLEAR     64  58  81 S3        29.99S
$$

...ELSEWHERE IN WISCONSIN...


CITY           SKY/WX    TMP DP  RH WIND       PRES   REMARKS
MILWAUKEE      MOCLDY    67  55  65 S3        30.02R
MADISON        MOCLDY    67  61  81 CALM      30.00R
GREEN BAY      CLEAR     66  61  84 S3        29.99S
EAU CLAIRE     PTCLDY    73  64  73 S7        29.94R
BLACK RVR FLS  FAIR      62  62  99 CALM      29.96R FOG
MEDFORD        CLEAR     66  63  89 S5        29.98S
WAUSAU         PTCLDY    72  65  78 S5        29.96R HAZE
WIS RAPIDS     CLEAR     68  62  81 S3        29.99R
MARSHFIELD     MOCLDY    67  61  81 S5        29.98R HAZE
RICE LAKE      CLEAR     70  64  81 CALM      29.96R HAZE
$$

...NORTHEAST IOWA...


CITY           SKY/WX    TMP DP  RH WIND       PRES   REMARKS
DECORAH          N/A    N/A N/A N/A MISG        N/A
MASON CITY     CLEAR     63  60  90 S7        29.99R
CHARLES CITY   CLEAR     64  64 100 S6        29.99R
OELWEIN        CLEAR     64  63  94 SE6       30.00S
$$

...ELSEWHERE IN IOWA...


CITY           SKY/WX    TMP DP  RH WIND       PRES   REMARKS
DES MOINES     PTCLDY    70  60  70 S7        29.98R
IOWA CITY      CLEAR     65  61  87 SE5       30.01R
FORT DODGE     CLEAR     70  59  68 S5        29.97S
$$

...NORTHERN ILLINOIS...


CITY           SKY/WX    TMP DP  RH WIND       PRES   REMARKS
CHICAGO-OHARE  PTCLDY    67  57  70 SE6       30.03R SMOKE
CHICAGO-MIDWAY PTCLDY    73  58  59 CALM      30.03R SMOKE
MOLINE         CLEAR     67  61  81 CALM      30.01S
ROCKFORD       PTCLDY    67  61  81 CALM      30.03S
PEORIA         CLEAR     69  62  78 NE3       30.03R HAZE
$$

NOTE: "FAIR" INDICATES FEW OR NO CLOUDS BELOW 12,000 FEET WITH NO
SIGNIFICANT WEATHER AND/OR OBSTRUCTIONS TO VISIBILITY. WIND
SPEEDS ARE IN MILES-PER-HOUR.



USA.gov is the U.S. government's official web portal to all federal, state and local government web resources and services.